Time,TemperatureF,DewpointF,PressureIn,WindDirection,WindDirectionDegrees,WindSpeedMPH,WindSpeedGustMPH,Humidity,HourlyPrecipIn,Conditions,Clouds,dailyrainin,SoftwareType,DateUTC
2013-12-28 00:22:00,42.0,39.0,-100.00,North,-999,-999.0,-999.0,87,0.00,,,0.00,,2013-12-28 06:22:00,
2013-12-28 00:52:00,42.0,38.0,-100.00,North,-999,-999.0,-999.0,88,0.00,,,-99.99,,2013-12-28 06:52:00,
2013-12-28 01:02:00,42.0,38.0,-100.00,North,-999,-999.0,-999.0,88,0.00,,,-99.99,,2013-12-28 07:02:00,
2013-12-28 01:11:00,42.0,38.0,-100.00,North,-999,-999.0,-999.0,88,0.00,,,-99.99,,2013-12-28 07:11:00,
2013-12-28 01:22:00,42.0,38.0,-100.00,North,-999,-999.0,-999.0,88,0.00,,,-99.99,,2013-12-28 07:22:00,
2013-12-28 01:52:00,42.0,39.0,-100.00,North,-999,-999.0,-999.0,88,0.00,,,0.00,,2013-12-28 07:52:00,
2013-12-28 02:22:00,43.0,39.0,-100.00,North,-999,-999.0,-999.0,87,-99.99,,,0.00,,2013-12-28 08:22:00,
2013-12-28 02:52:00,43.0,40.0,-100.00,North,-999,-999.0,-999.0,87,0.00,,,0.00,,2013-12-28 08:52:00,
2013-12-28 03:11:00,43.0,41.0,-100.00,North,-999,-999.0,-999.0,91,0.00,,,0.00,,2013-12-28 09:11:00,
2013-12-28 03:21:00,43.0,41.0,-100.00,North,-999,-999.0,-999.0,91,0.00,,,0.00,,2013-12-28 09:21:00,
2013-12-28 03:53:00,43.0,40.0,-100.00,North,-999,-999.0,-999.0,89,0.00,,,-99.99,,2013-12-28 09:53:00,
2013-12-28 04:12:00,43.0,40.0,-100.00,North,-999,-999.0,-999.0,89,0.00,,,0.00,,2013-12-28 10:12:00,
2013-12-28 04:22:00,43.0,40.0,-100.00,North,-999,-999.0,-999.0,89,0.00,,,0.00,,2013-12-28 10:22:00,
2013-12-28 04:33:00,43.0,40.0,-100.00,North,-999,-999.0,-999.0,89,0.00,,,0.00,,2013-12-28 10:33:00,
2013-12-28 04:53:00,43.0,41.0,-100.00,North,-999,-999.0,-999.0,90,0.00,,,0.00,,2013-12-28 10:53:00,
2013-12-28 05:12:00,43.0,41.0,-100.00,North,-999,-999.0,-999.0,91,0.00,,,0.00,,2013-12-28 11:12:00,
2013-12-28 05:22:00,43.0,41.0,-100.00,North,-999,-999.0,-999.0,91,0.00,,,0.00,,2013-12-28 11:22:00,
2013-12-28 05:52:00,43.0,41.0,-100.00,North,-999,-999.0,-999.0,91,0.00,,,0.00,,2013-12-28 11:52:00,
2013-12-28 06:11:00,43.0,41.0,-100.00,North,-999,-999.0,-999.0,91,0.00,,,0.00,,2013-12-28 12:11:00,
2013-12-28 06:23:00,43.0,41.0,-100.00,North,-999,-999.0,-999.0,91,0.00,,,0.00,,2013-12-28 12:23:00,
2013-12-28 06:32:00,43.0,41.0,-100.00,North,-999,-999.0,-999.0,91,0.00,,,0.00,,2013-12-28 12:32:00,
2013-12-28 06:52:00,42.0,41.0,-100.00,North,-999,-999.0,-999.0,94,0.00,,,0.00,,2013-12-28 12:52:00,
2013-12-28 07:21:00,41.0,40.0,-100.00,North,-999,-999.0,-999.0,98,-99.99,,,0.00,,2013-12-28 13:21:00,
2013-12-28 07:52:00,40.0,40.0,-100.00,North,-999,-999.0,-999.0,99,0.00,,,0.00,,2013-12-28 13:52:00,
2013-12-28 08:22:00,41.0,41.0,-100.00,North,-999,-999.0,-999.0,99,0.00,,,0.00,,2013-12-28 14:22:00,
2013-12-28 08:52:00,43.0,42.0,-100.00,North,-999,-999.0,-999.0,97,0.00,,,0.00,,2013-12-28 14:52:00,
2013-12-28 09:02:00,43.0,42.0,-100.00,North,-999,-999.0,-999.0,97,0.00,,,0.00,,2013-12-28 15:02:00,
2013-12-28 09:12:00,47.0,41.0,-100.00,North,-999,-999.0,-999.0,80,0.00,,,0.00,,2013-12-28 15:12:00,
2013-12-28 09:53:00,47.0,41.0,-100.00,North,-999,-999.0,-999.0,80,0.00,,,0.00,,2013-12-28 15:53:00,
2013-12-28 10:03:00,47.0,41.0,-100.00,North,-999,-999.0,-999.0,80,0.00,,,0.00,,2013-12-28 16:03:00,
2013-12-28 10:53:00,48.0,42.0,-100.00,North,-999,-999.0,-999.0,78,-99.99,,,0.00,,2013-12-28 16:53:00,
2013-12-28 11:22:00,50.0,41.0,-100.00,North,-999,-999.0,-999.0,69,-99.99,,,0.00,,2013-12-28 17:22:00,
2013-12-28 11:52:00,53.0,40.0,-100.00,North,-999,-999.0,-999.0,62,0.00,,,0.00,,2013-12-28 17:52:00,
2013-12-28 12:22:00,54.0,40.0,-100.00,North,-999,-999.0,-999.0,57,0.00,,,0.00,,2013-12-28 18:22:00,
2013-12-28 12:52:00,55.0,40.0,-100.00,North,-999,-999.0,-999.0,57,0.00,,,0.00,,2013-12-28 18:52:00,
2013-12-28 13:11:00,56.0,38.0,-100.00,North,-999,-999.0,-999.0,51,0.00,,,0.00,,2013-12-28 19:11:00,
2013-12-28 13:21:00,56.0,38.0,-100.00,North,-999,-999.0,-999.0,51,0.00,,,0.00,,2013-12-28 19:21:00,
2013-12-28 13:32:00,56.0,38.0,-100.00,North,-999,-999.0,-999.0,51,0.00,,,0.00,,2013-12-28 19:32:00,
2013-12-28 13:52:00,57.0,41.0,-100.00,North,-999,-999.0,-999.0,54,0.00,,,0.00,,2013-12-28 19:52:00,
2013-12-28 14:11:00,57.0,42.0,-100.00,North,-999,-999.0,-999.0,56,0.00,,,0.00,,2013-12-28 20:11:00,
2013-12-28 14:22:00,57.0,42.0,-100.00,North,-999,-999.0,-999.0,56,0.00,,,0.00,,2013-12-28 20:22:00,
2013-12-28 14:52:00,59.0,41.0,-100.00,North,-999,-999.0,-999.0,53,0.00,,,0.00,,2013-12-28 20:52:00,
2013-12-28 15:21:00,56.0,42.0,-100.00,North,-999,-999.0,-999.0,58,-99.99,,,0.00,,2013-12-28 21:21:00,
2013-12-28 15:53:00,56.0,42.0,-100.00,North,-999,-999.0,-999.0,59,0.00,,,0.00,,2013-12-28 21:53:00,
2013-12-28 16:23:00,56.0,42.0,-100.00,North,-999,-999.0,-999.0,59,0.00,,,0.00,,2013-12-28 22:23:00,
2013-12-28 16:52:00,56.0,43.0,-100.00,North,-999,-999.0,-999.0,61,0.00,,,0.00,,2013-12-28 22:52:00,
2013-12-28 17:22:00,55.0,43.0,-100.00,North,-999,-999.0,-999.0,63,0.00,,,0.00,,2013-12-28 23:22:00,
2013-12-28 17:53:00,55.0,45.0,-100.00,North,-999,-999.0,-999.0,69,0.00,,,0.00,,2013-12-28 23:53:00,
2013-12-28 18:22:00,54.0,46.0,-100.00,North,-999,-999.0,-999.0,74,0.00,,,0.00,,2013-12-29 00:22:00,
2013-12-28 18:31:00,54.0,46.0,-100.00,North,-999,-999.0,-999.0,74,0.00,,,0.00,,2013-12-29 00:31:00,
2013-12-28 18:52:00,53.0,46.0,-100.00,North,-999,-999.0,-999.0,78,0.00,,,0.00,,2013-12-29 00:52:00,
2013-12-28 19:02:00,53.0,46.0,-100.00,North,-999,-999.0,-999.0,78,0.00,,,0.00,,2013-12-29 01:02:00,
2013-12-28 19:22:00,51.0,46.0,-100.00,North,-999,-999.0,-999.0,83,0.00,,,0.00,,2013-12-29 01:22:00,
2013-12-28 19:32:00,51.0,46.0,-100.00,North,-999,-999.0,-999.0,83,0.00,,,0.00,,2013-12-29 01:32:00,
2013-12-28 19:52:00,51.0,46.0,-100.00,North,-999,-999.0,-999.0,84,0.00,,,0.00,,2013-12-29 01:52:00,
2013-12-28 20:11:00,51.0,46.0,-100.00,North,-999,-999.0,-999.0,84,-99.99,,,-99.99,,2013-12-29 02:11:00,
2013-12-28 20:22:00,51.0,46.0,-100.00,North,-999,-999.0,-999.0,84,-99.99,,,-99.99,,2013-12-29 02:22:00,
2013-12-28 20:32:00,51.0,46.0,-100.00,North,-999,-999.0,-999.0,84,-99.99,,,-99.99,,2013-12-29 02:32:00,
2013-12-28 20:52:00,49.0,46.0,-100.00,North,-999,-999.0,-999.0,90,0.00,,,0.00,,2013-12-29 02:52:00,
2013-12-28 21:22:00,48.0,46.0,-100.00,North,-999,-999.0,-999.0,94,-99.99,,,0.00,,2013-12-29 03:22:00,
2013-12-28 21:53:00,47.0,46.0,-100.00,North,-999,-999.0,-999.0,98,0.00,,,0.00,,2013-12-29 03:53:00,
2013-12-28 22:13:00,47.0,46.0,-100.00,North,-999,-999.0,-999.0,99,0.00,,,0.00,,2013-12-29 04:13:00,
2013-12-28 22:22:00,47.0,46.0,-100.00,North,-999,-999.0,-999.0,99,0.00,,,0.00,,2013-12-29 04:22:00,
2013-12-28 22:53:00,46.0,46.0,-100.00,North,-999,-999.0,-999.0,100,0.00,,,0.00,,2013-12-29 04:53:00,
2013-12-28 23:23:00,45.0,45.0,-100.00,North,-999,-999.0,-999.0,100,-99.99,,,0.00,,2013-12-29 05:23:00,
2013-12-28 23:53:00,44.0,44.0,-100.00,North,-999,-999.0,-999.0,100,0.00,,,0.00,,2013-12-29 05:53:00,